[[{"header":{"parameterUnit":"m.s-1","parameterCategory":1,"la1":30.2991,"la2":30.254,"lo1":-89.0895,"lo2":-89.0444,"dy":0.0017,"dx":0.0017,"nx":28,"ny":28,"refTime":"2025-04-11T21:00:00:Z","depth":0,"parameterNumber":2,"parameterNumberName":"U-component_of_WINDS"},"data":[0,0,0,0,0,0,0,0,0,0,0,0,0,0,0,0,0,0,0,0,0,0,0,0,0,0,0,0,0,0,0,0,0,0,0,0,0,0,0,0,0,0,0,0,0,0,0,0,0,0,0,0,0,0,0,0,0,0,2.7707,2.7708,0,2.7767,2.7767,2.7768,2.7766,2.7765,2.7765,2.7764,2.7828,2.783,2.7833,0,0,0,0,0,0,0,0,0,0,0,0,0,2.7597,2.7599,2.7707,2.7708,2.7709,2.7767,2.7767,2.7768,2.7766,2.7765,2.7764,2.7763,2.7827,2.783,2.7833,0,0,0,0,0,0,0,0,0,0,0,0,0,2.7649,2.7599,2.7707,2.7715,2.7716,2.7766,2.7767,2.7768,2.7767,2.7765,2.7764,2.7763,2.7826,2.783,2.7833,2.7881,0,0,2.7845,2.7846,0,0,0,0,0,0,0,0,2.7646,2.7653,2.7713,2.7714,2.7716,2.7758,2.7752,2.7806,2.7767,2.7747,2.7764,2.7762,2.7806,2.7811,2.7825,2.7884,2.7887,2.7845,2.7847,2.7849,2.785,0,0,0,0,0,0,0,2.7643,2.7651,2.7731,2.7714,2.7715,2.7717,2.7723,2.7762,2.7783,2.7749,2.7749,2.7756,2.7806,2.7821,2.7826,2.7888,2.7845,2.7848,2.785,2.7852,2.7992,2.7994,0,0,0,0,0,0,2.7637,2.7648,2.7729,2.7733,2.7677,2.772,2.7726,2.7746,2.7782,2.7787,2.7757,2.7756,2.7816,2.7822,2.7829,2.7889,2.7849,2.7852,2.7854,2.7991,2.7993,2.7994,0,0,0,0,0,0,2.7635,2.7644,2.7726,2.769,2.7701,2.7723,2.7744,2.7747,2.7762,2.7788,2.7792,2.7768,2.7815,2.7823,2.7869,2.7891,2.7854,2.7857,2.7989,2.7991,2.7993,2.8008,0,0,0,0,0,0,2.7631,2.7643,2.766,2.7691,2.7703,2.7764,2.7746,2.7749,2.7768,2.7767,2.78,2.7804,2.7815,2.7863,2.7872,2.7895,2.786,2.7987,2.799,2.7993,2.8006,2.801,2.8015,0,0,0,0,0,2.7627,2.7662,2.7661,2.7671,2.7724,2.7765,2.7772,2.7782,2.777,2.7788,2.7806,2.7803,2.7887,2.7868,2.7878,2.7902,2.7986,2.7989,2.7993,2.8004,2.8009,2.8014,0,0,0,0,0,0,2.7634,2.7666,2.7665,2.771,2.7735,2.7764,2.7787,2.7788,2.7817,2.7815,2.7827,2.7835,2.788,2.7896,2.7874,2.7952,2.7935,2.7941,2.794,2.7946,2.795,2.7946,2.7863,0,0,0,0,0,2.7641,2.767,2.7697,2.7734,2.7746,2.7765,2.7783,2.7789,2.7815,2.7826,2.7846,2.7873,2.7906,2.7927,2.7958,2.8008,2.8017,2.8031,2.8035,2.8039,2.8043,2.8074,2.8081,2.8005,2.8005,2.8005,0,0,2.7655,2.7676,2.7693,2.7736,2.7756,2.7787,2.7774,2.7807,2.7831,2.7831,2.7875,2.7891,2.7922,2.7971,2.7993,2.7985,2.8066,2.8043,2.8046,2.8048,2.8078,2.8085,2.8091,2.8008,2.8007,2.8007,0,0,2.7697,2.7715,2.7749,2.7769,2.7799,2.7812,2.782,2.785,2.7861,2.7905,2.7907,2.7937,2.7992,2.8014,2.8033,2.8087,2.8087,2.8097,2.812,2.815,2.8156,2.8161,2.8182,2.8189,2.8102,2.8102,2.8102,0,2.771,2.7756,2.7766,2.7801,2.782,2.7822,2.7858,2.7878,2.7917,2.7931,2.7922,2.7993,2.8014,2.8068,2.8082,2.8097,2.8108,2.8093,2.8154,2.8159,2.8165,2.8185,2.8192,2.8103,2.8103,2.8103,2.8102,0,2.7773,2.7805,2.783,2.7867,2.789,2.7924,2.7942,2.7964,2.7969,2.7983,2.803,2.8055,2.8093,2.8106,2.8111,2.8163,2.8157,2.8151,2.8134,2.8173,2.8192,2.8199,2.8104,2.8104,2.8104,2.8103,0,0,2.7819,2.7863,2.7872,2.789,2.7924,2.795,2.7987,2.8023,2.8042,2.807,2.8102,2.8151,2.8146,2.8167,2.8175,2.8201,2.8244,2.8192,2.8193,2.8201,2.8305,2.831,2.8319,2.8245,2.8246,2.8247,2.8303,0,2.7865,2.7927,2.7939,2.7994,2.8026,2.8029,2.8061,2.8087,2.8103,2.8133,2.815,2.8185,2.8175,2.8188,2.8214,2.8233,2.8265,2.8229,2.8276,2.8278,2.8268,2.8328,2.8333,2.8384,2.831,2.8312,2.8313,0,2.7926,2.7955,2.8014,2.8047,2.806,2.8088,2.8124,2.8152,2.8183,2.8193,2.8218,2.8224,2.8264,2.8246,2.8303,2.8278,2.8299,2.8312,2.8314,2.8319,2.8297,2.8335,2.8401,2.8409,2.8324,2.8323,2.8322,0,2.7955,2.8009,2.8052,2.8067,2.8106,2.8126,2.8144,2.8173,2.8195,2.8227,2.8242,2.8278,2.8298,2.8327,2.8344,2.8329,2.8401,2.8383,2.8411,2.8411,2.8426,2.8424,2.8496,2.8438,2.8438,2.8438,2.8438,0,2.8005,2.8041,2.8066,2.8092,2.8133,2.8147,2.8189,2.8206,2.8233,2.8264,2.827,2.83,2.832,2.8353,2.8366,2.8413,2.8422,2.8432,2.8435,2.8432,2.843,2.8445,2.8442,2.844,2.8439,2.8439,2.8439,0,2.8044,2.8061,2.8108,2.8142,2.8151,2.8181,2.821,2.8237,2.8253,2.8293,2.8303,2.8329,2.8369,2.8389,2.8438,2.8447,2.85,2.8501,2.8489,2.8491,2.8518,2.8516,2.8601,2.8614,2.8547,2.8548,2.8549,0,2.8075,2.8102,2.8139,2.816,2.8178,2.8212,2.8235,2.8251,2.8275,2.8313,2.8336,2.8376,2.8409,2.8473,2.8497,2.8536,2.8538,2.8566,2.8544,2.854,2.854,2.8538,2.8542,2.8569,2.857,2.857,2.8571,0,2.8128,2.8136,2.8168,2.8204,2.823,2.8259,2.8288,2.8306,2.8327,2.8354,2.8394,2.842,2.8471,2.8511,2.8552,2.8573,2.8576,2.8578,2.8587,2.8583,2.8576,2.8582,2.8501,2.8576,2.8575,2.8575,2.8574,2.8574,2.8165,2.819,2.8221,2.8257,2.828,2.8308,2.8335,2.8355,2.8389,2.8431,2.8439,2.8483,2.8516,2.8572,2.8593,2.8629,2.8623,2.8636,2.8639,2.8642,2.8644,2.857,2.8637,2.8637,2.8636,2.8636,2.8636,0,2.8219,2.824,2.8273,2.8313,2.8342,2.8342,2.8375,2.84,2.8438,2.8468,2.85,2.8548,2.8588,2.8617,2.8658,2.8682,2.8685,2.8692,2.8691,2.8696,2.8646,2.8635,2.8689,2.8689,2.8689,2.8689,2.8689,2.8689,2.8251,2.8295,2.8307,2.8365,2.8385,2.8427,2.8446,2.8472,2.8497,2.855,2.8583,2.8601,2.8631,2.8675,2.8713,2.8721,2.8736,2.8744,2.8752,2.8705,2.8699,2.8694,2.8683,2.8747,2.8747,2.8799,2.8799,2.8799]},{"header":{"parameterUnit":"m.s-1","parameterCategory":1,"la1":30.2991,"la2":30.254,"lo1":-89.0895,"lo2":-89.0444,"dy":0.0017,"dx":0.0017,"nx":28,"ny":28,"refTime":"2025-04-11T21:00:00:Z","depth":0,"parameterNumber":3,"parameterNumberName":"V-component_of_WINDS"},"data":[0,0,0,0,0,0,0,0,0,0,0,0,0,0,0,0,0,0,0,0,0,0,0,0,0,0,0,0,0,0,0,0,0,0,0,0,0,0,0,0,0,0,0,0,0,0,0,0,0,0,0,0,0,0,0,0,0,0,-5.1691,-5.169,0,-5.1654,-5.1653,-5.1653,-5.1676,-5.1678,-5.1679,-5.168,-5.1633,-5.163,-5.1628,0,0,0,0,0,0,0,0,0,0,0,0,0,-5.1776,-5.1774,-5.1691,-5.169,-5.169,-5.1654,-5.1653,-5.1653,-5.1676,-5.1678,-5.1679,-5.168,-5.1633,-5.1631,-5.1628,0,0,0,0,0,0,0,0,0,0,0,0,0,-5.1739,-5.1774,-5.1691,-5.1697,-5.1698,-5.1654,-5.1653,-5.1652,-5.1676,-5.1678,-5.1679,-5.1681,-5.1634,-5.1631,-5.1628,-5.1572,0,0,-5.1617,-5.1615,0,0,0,0,0,0,0,0,-5.1741,-5.1735,-5.1697,-5.1697,-5.1697,-5.1672,-5.1666,-5.1625,-5.1676,-5.1684,-5.168,-5.1682,-5.1644,-5.164,-5.1629,-5.157,-5.1568,-5.1617,-5.1615,-5.1613,-5.1612,0,0,0,0,0,0,0,-5.1743,-5.1737,-5.1676,-5.1696,-5.1696,-5.17,-5.1697,-5.1658,-5.1654,-5.1683,-5.1685,-5.1681,-5.1644,-5.1632,-5.1628,-5.1567,-5.1617,-5.1614,-5.1612,-5.161,-5.1463,-5.1461,0,0,0,0,0,0,-5.1746,-5.1739,-5.1677,-5.1675,-5.1724,-5.1697,-5.1694,-5.1678,-5.1655,-5.1653,-5.1679,-5.1682,-5.1637,-5.1632,-5.1626,-5.156,-5.1613,-5.161,-5.1608,-5.1465,-5.1462,-5.146,0,0,0,0,0,0,-5.1748,-5.1741,-5.1678,-5.1707,-5.17,-5.1694,-5.1676,-5.1676,-5.1664,-5.1652,-5.1651,-5.1668,-5.1638,-5.1631,-5.1586,-5.1559,-5.1608,-5.1605,-5.1467,-5.1464,-5.1461,-5.1428,0,0,0,0,0,0,-5.175,-5.1741,-5.1721,-5.1707,-5.1698,-5.1641,-5.1675,-5.1674,-5.1659,-5.1662,-5.1641,-5.1639,-5.1639,-5.1591,-5.1583,-5.1555,-5.1602,-5.1469,-5.1466,-5.1462,-5.1431,-5.1424,-5.1418,0,0,0,0,0,-5.1753,-5.1711,-5.172,-5.1712,-5.1674,-5.1639,-5.1634,-5.1637,-5.1657,-5.1636,-5.1629,-5.164,-5.1564,-5.1587,-5.1577,-5.1548,-5.1471,-5.1467,-5.1463,-5.1434,-5.1425,-5.1418,0,0,0,0,0,0,-5.1717,-5.1709,-5.1719,-5.1671,-5.1656,-5.1644,-5.1617,-5.1628,-5.1605,-5.1608,-5.1611,-5.1606,-5.1559,-5.1549,-5.1575,-5.1494,-5.152,-5.1514,-5.1502,-5.1493,-5.1487,-5.1489,-5.16,0,0,0,0,0,-5.1705,-5.168,-5.1673,-5.1631,-5.1624,-5.1622,-5.1607,-5.1611,-5.1595,-5.1588,-5.1577,-5.1558,-5.1531,-5.1512,-5.1485,-5.1431,-5.1426,-5.1406,-5.14,-5.1394,-5.1388,-5.1359,-5.135,-5.1447,-5.1447,-5.1447,0,0,-5.1676,-5.1669,-5.1652,-5.1624,-5.1613,-5.1585,-5.1616,-5.1585,-5.1564,-5.1582,-5.154,-5.1532,-5.1511,-5.1462,-5.144,-5.1452,-5.1361,-5.1389,-5.1385,-5.1381,-5.1354,-5.1345,-5.1337,-5.1444,-5.1445,-5.1445,0,0,-5.161,-5.1603,-5.1568,-5.1558,-5.1543,-5.1542,-5.1534,-5.1521,-5.1517,-5.1476,-5.149,-5.1464,-5.1416,-5.1402,-5.1388,-5.1322,-5.133,-5.1313,-5.1277,-5.1249,-5.1241,-5.1235,-5.121,-5.1202,-5.1307,-5.1307,-5.1307,0,-5.1576,-5.1538,-5.1547,-5.1517,-5.1504,-5.1524,-5.1487,-5.1476,-5.1451,-5.1441,-5.1457,-5.1399,-5.1387,-5.1335,-5.1319,-5.1308,-5.1297,-5.1313,-5.1243,-5.1236,-5.1229,-5.1206,-5.1197,-5.1305,-5.1305,-5.1305,-5.1306,0,-5.1496,-5.1469,-5.1443,-5.1423,-5.1407,-5.1374,-5.1377,-5.1359,-5.1367,-5.1364,-5.1323,-5.131,-5.1282,-5.127,-5.1274,-5.1219,-5.1228,-5.1243,-5.1269,-5.1218,-5.1196,-5.1187,-5.1302,-5.1303,-5.1303,-5.1304,0,0,-5.1402,-5.1392,-5.1382,-5.1374,-5.1361,-5.1339,-5.1307,-5.1284,-5.1268,-5.1252,-5.1224,-5.1186,-5.1201,-5.1185,-5.1189,-5.1165,-5.1113,-5.1183,-5.1183,-5.1169,-5.1051,-5.1038,-5.1027,-5.1121,-5.1119,-5.1118,-5.1052,0,-5.1335,-5.1282,-5.1291,-5.1238,-5.1214,-5.1234,-5.1206,-5.1194,-5.1192,-5.117,-5.1167,-5.1139,-5.1162,-5.1153,-5.113,-5.1124,-5.1089,-5.1129,-5.1092,-5.1091,-5.1095,-5.1016,-5.1001,-5.094,-5.1044,-5.1042,-5.1041,0,-5.1248,-5.1233,-5.1179,-5.1172,-5.1162,-5.1137,-5.1118,-5.1097,-5.1084,-5.1084,-5.1069,-5.1079,-5.1045,-5.1075,-5.1028,-5.1056,-5.1041,-5.1037,-5.1034,-5.1028,-5.1061,-5.1006,-5.092,-5.091,-5.1028,-5.1029,-5.103,0,-5.1184,-5.115,-5.1114,-5.1107,-5.1098,-5.108,-5.1075,-5.1064,-5.105,-5.1033,-5.1024,-5.1001,-5.0988,-5.097,-5.0973,-5.0994,-5.0925,-5.0955,-5.0922,-5.0922,-5.0904,-5.0904,-5.0812,-5.0899,-5.0899,-5.0899,-5.0899,0,-5.1107,-5.1072,-5.1085,-5.1062,-5.1025,-5.1037,-5.0998,-5.0996,-5.0987,-5.0963,-5.0979,-5.0955,-5.0962,-5.0938,-5.094,-5.0901,-5.0895,-5.0893,-5.0893,-5.089,-5.089,-5.0878,-5.0882,-5.0897,-5.0897,-5.0898,-5.0898,0,-5.1027,-5.1034,-5.0996,-5.0993,-5.0992,-5.0964,-5.096,-5.0938,-5.094,-5.091,-5.0903,-5.0904,-5.0878,-5.088,-5.0849,-5.085,-5.0802,-5.0808,-5.0807,-5.0807,-5.0774,-5.0777,-5.0669,-5.0655,-5.0753,-5.0752,-5.0751,0,-5.0976,-5.095,-5.0946,-5.0933,-5.0928,-5.0906,-5.0894,-5.0905,-5.0891,-5.0877,-5.0856,-5.0832,-5.0813,-5.077,-5.0766,-5.0743,-5.0748,-5.0712,-5.0744,-5.0742,-5.0745,-5.0746,-5.0743,-5.0704,-5.0703,-5.0702,-5.0702,0,-5.0884,-5.089,-5.0872,-5.0857,-5.0843,-5.083,-5.0818,-5.0806,-5.0817,-5.08,-5.0775,-5.0761,-5.0732,-5.0707,-5.0687,-5.0679,-5.0691,-5.0693,-5.0684,-5.0679,-5.0678,-5.0677,-5.0787,-5.0694,-5.0695,-5.0695,-5.0696,-5.0696,-5.0815,-5.0795,-5.079,-5.077,-5.0764,-5.0754,-5.0734,-5.0735,-5.0716,-5.0695,-5.0703,-5.0675,-5.0665,-5.0638,-5.063,-5.0607,-5.0619,-5.0606,-5.0602,-5.0598,-5.0594,-5.0685,-5.0603,-5.0603,-5.0603,-5.0603,-5.0604,0,-5.0723,-5.0722,-5.0705,-5.0691,-5.0675,-5.0694,-5.0683,-5.0668,-5.0644,-5.0635,-5.0618,-5.059,-5.0568,-5.0565,-5.0543,-5.0525,-5.053,-5.0518,-5.0518,-5.0516,-5.0585,-5.0594,-5.0515,-5.0515,-5.0515,-5.0515,-5.0515,-5.0515,-5.0673,-5.0639,-5.0645,-5.0609,-5.0607,-5.0582,-5.0575,-5.0566,-5.0559,-5.0528,-5.0511,-5.0511,-5.0504,-5.0483,-5.0462,-5.0462,-5.0452,-5.0438,-5.0439,-5.0503,-5.0511,-5.052,-5.0528,-5.0436,-5.0436,-5.0373,-5.0372,-5.0371]}]]